Regional Weather Roundup
Issued by NWS Memphis, TN

Home | Current Version | Previous Version | Text Only | Print | Product List | Glossary On
Versions: 1 2 3 4 5 6 7 8 9 10 11 12 13 14 15 16 17 18 19 20 21 22 23 24 25 26 27 28 29 30 31 32 33 34 35 36 37 38 39 40 41 42 43 44 45 46 47 48 49 50
000
ASUS44 KMEG 290510
RWRMEG
MEMPHIS CWA HOURLY WEATHER ROUNDUP
NATIONAL WEATHER SERVICE MEMPHIS TN
1200 AM CDT TUE JUL 29 2014

...WEST TENNESSEE...

CITY           SKY/WX    TMP DP  RH WIND       PRES   REMARKS
MEMPHIS INTL   MOCLDY    77  64  64 NE6       30.06S
NWS MEMPHIS      N/A     72 N/A N/A MISG        N/A
JACKSON        MOCLDY    67  63  87 CALM      30.07S
LEXINGTON      CLEAR     66  61  82 N5        30.06R
SAVANNAH       CLEAR     64  64 100 CALM      30.07R
DYERSBURG      MOCLDY    72  55  56 N8        30.09R
UNION CITY     CLEAR     64  61  88 N5        30.08S
PARIS          CLEAR     63  58  83 CALM      30.09R


...EASTERN ARKANSAS...

CITY           SKY/WX    TMP DP  RH WIND       PRES   REMARKS
JONESBORO      MOCLDY    73  64  73 NE7       30.08R
WEST MEMPHIS   PTCLDY    72  69  90 CALM      30.05R
BATESVILLE     CLEAR     70  63  78 CALM      30.09R
NEWPORT        PTCLDY    73  67  81 N8        30.09R
WALNUT RIDGE   MOCLDY    73  63  68 NE8       30.09R
BLYTHEVILLE    MOCLDY    72  64  76 NE8       30.08R
SEARCY         CLEAR     69  66  90 NW5       30.08S FOG
STUTTGART      CLEAR     72  66  83 W3        30.06F
PINE BLUFF     CLEAR     70  67  90 CALM      30.06S
MONTICELLO     CLEAR     70  66  87 CALM      30.06F


...NORTH MISSISSIPPI...

CITY           SKY/WX    TMP DP  RH WIND       PRES   REMARKS
TUPELO         CLEAR     71  64  78 CALM      30.05S
OLIVE BRANCH   CLOUDY    73  70  88 CALM      30.07R
CLARKSDALE     CLEAR     70  68  94 CALM      30.06F
CORINTH        CLEAR     66  64  94 CALM      30.06R
GRENADA        CLEAR     68  64  88 CALM      30.06S
GREENWOOD      CLEAR     69  66  90 CALM      30.05F
COLUMBUS       CLEAR     70  64  82 NW2       30.04F
STARKVILLE     FAIR      68  64  88 CALM      30.05S
GOLDEN TRIANGL CLEAR     70  63  78 NW5       30.05S


...SOUTHEAST MISSOURI...

CITY           SKY/WX    TMP DP  RH WIND       PRES   REMARKS
WEST PLAINS    CLEAR     64  57  78 NE5       30.16S
POPLAR BLUFF   CLEAR     67  58  72 N6        30.10R
CAPE GIRARDEAU CLEAR     65  58  78 N5        30.10S


...NORTHWEST ALABAMA...

CITY           SKY/WX    TMP DP  RH WIND       PRES   REMARKS
MUSCLE SHOALS  PTCLDY    68  62  81 W3        30.06R


...MIDDLE TENNESSEE...

CITY           SKY/WX    TMP DP  RH WIND       PRES   REMARKS
NASHVILLE      CLEAR     70  58  65 N7        30.06R
CLARKSVILLE    CLEAR     64  57  78 N7        30.07R
DICKSON        CLEAR     64  57  77 N5        30.07R
COLUMBIA       CLEAR     68  63  83 CALM      30.05R
LEWISBURG      PTCLDY    69  61  76 CALM      30.04S


...WESTERN KENTUCKY...

CITY           SKY/WX    TMP DP  RH WIND       PRES   REMARKS
PADUCAH        CLEAR     66  56  70 N7        30.08S
FORT CAMPBELL  CLEAR     66  58  74 NW6       30.07R


...CENTRAL ARKANSAS...

CITY           SKY/WX    TMP DP  RH WIND       PRES   REMARKS
LITTLE ROCK    PTCLDY    73  65  75 CALM      30.07S


SKY/WX REPORTED AS FAIR MEANS FEW OR NO CLOUDS BELOW
12 THOUSAND FEET.




USA.gov is the U.S. government's official web portal to all federal, state and local government web resources and services.